Location: Bennemühlen
(52.5740°N, 9.7135°E)
Time: 01:13:34
(UTC+00:00)

A-11 Canister half - Visible Passes

Search period start: 07 February 2026 00:00
Search period end: 17 February 2026 00:00
Orbit: 1512 x 1688 km, 47.2° (Epoch: 6 February)

Date Brightness Start Highest point End Pass type
(mag) Time Alt. Az. Time Alt. Az. Time Alt. Az.
7 Feb 10.3 01:21:46 27° E 01:21:46 27° E 01:25:24 10° E visible
7 Feb 9.0 03:19:57 60° SSW 03:20:25 61° SSW 03:29:34 10° ESE visible
7 Feb 9.7 05:18:08 18° W 05:24:08 36° SW 05:32:18 10° SSE visible
8 Feb 10.6 00:59:58 20° E 00:59:58 20° E 01:02:23 10° E visible
8 Feb 9.1 02:58:09 60° S 02:58:09 60° S 03:06:36 10° ESE visible
8 Feb 9.6 04:56:21 24° W 05:01:11 38° SW 05:09:28 10° SSE visible
9 Feb 10.9 00:38:13 15° E 00:38:13 15° E 00:39:22 10° E visible
9 Feb 9.3 02:36:24 53° SE 02:36:24 53° SE 02:43:38 10° ESE visible
9 Feb 9.5 04:34:35 29° WSW 04:38:14 39° SSW 04:46:37 10° SSE visible
10 Feb 9.6 02:14:41 43° SE 02:14:41 43° SE 02:20:39 10° ESE visible
10 Feb 9.4 04:12:53 36° WSW 04:15:16 41° SSW 04:23:46 10° SE visible
10 Feb 10.4 06:13:08 10° W 06:17:58 15° SW 06:22:46 10° SSW visible
11 Feb 10.0 01:53:01 33° ESE 01:53:01 33° ESE 01:57:39 10° ESE visible
11 Feb 9.3 03:51:13 41° SW 03:52:18 43° SSW 04:00:54 10° SE visible
11 Feb 10.3 05:49:46 10° W 05:55:05 17° SW 06:00:20 10° SSW visible
12 Feb 10.4 01:31:24 25° ESE 01:31:24 25° ESE 01:34:40 10° ESE visible
12 Feb 9.3 03:29:36 44° SSW 03:29:36 44° SSW 03:38:01 10° SE visible
12 Feb 10.3 05:27:49 13° W 05:32:11 18° SW 05:37:50 10° SSW visible
13 Feb 10.7 01:09:52 18° ESE 01:09:52 18° ESE 01:11:40 10° ESE visible
13 Feb 9.4 03:08:04 42° S 03:08:04 42° S 03:15:07 10° SE visible
13 Feb 10.1 05:06:16 16° WSW 05:09:17 19° SW 05:15:17 10° S visible
14 Feb 11.0 00:48:23 11° ESE 00:48:23 11° ESE 00:48:40 10° ESE visible
14 Feb 9.7 02:46:36 36° SSE 02:46:36 36° SSE 02:52:13 10° SE visible
14 Feb 10.0 04:44:48 20° WSW 04:46:22 21° SW 04:52:42 10° S visible
14 Feb 10.8 20:00:50 10° S 20:01:46 13° S 20:01:46 13° S visible
15 Feb 10.1 02:25:12 28° SSE 02:25:12 28° SSE 02:29:19 10° SE visible
15 Feb 10.0 04:23:25 22° SW 04:23:28 22° SW 04:30:05 10° S visible
15 Feb 10.5 19:38:06 10° S 19:40:49 17° S 19:40:49 17° S visible
16 Feb 10.5 02:03:52 20° SE 02:03:52 20° SE 02:06:23 10° SE visible
16 Feb 10.0 04:02:07 22° SSW 04:02:07 22° SSW 04:07:26 10° S visible
16 Feb 10.3 19:15:22 10° S 19:19:49 20° SSE 19:19:49 20° SSE visible
16 Feb 10.7 21:16:20 10° SW 21:18:05 16° SW 21:18:05 16° SW visible
